FW6537 Weather Reports


time (UTC)temp
C
wind
direction
speed
KPH
gust
KPH
rain 1hr
cm
rain 24hr
cm
rain mn
cm
humidity
%
barometer
mb
20260502214634 7 151 3.2 11.3 0.00 0.46 0.03 59 1012.3
20260502213153 7 104 1.6 9.7 0.00 0.46 0.03 58 1012.3
20260502211634 8 108 1.6 12.9 0.00 0.46 0.03 56 1012.3
20260502210135 8 84 3.2 11.3 0.00 0.46 0.03 56 1012.2
20260502204634 8 99 4.8 9.7 0.00 0.46 0.03 57 1012.3
20260502201638 7 95 1.6 8.0 0.00 0.46 0.03 61 1012.4
20260502200135 7 97 1.6 6.4 0.00 0.46 0.03 61 1012.6
20260502194627 7 145 1.6 4.8 0.00 0.46 0.03 61 1012.6
20260502193147 8 115 1.6 8.0 0.00 0.46 0.03 60 1012.9
20260502191622 7 89 1.6 6.4 0.00 0.46 0.03 61 1013.0
20260502190123 8 98 1.6 9.7 0.00 0.46 0.03 61 1012.8
20260502184633 8 129 3.2 9.7 0.00 0.46 0.03 61 1012.7
20260502181657 8 105 3.2 6.4 0.00 0.46 0.03 55 1012.5
20260502180130 8 98 1.6 9.7 0.00 0.46 0.03 56 1012.5
20260502170126 8 129 3.2 14.5 0.00 0.46 0.03 54 1012.5
20260502163201 8 97 4.8 12.9 0.00 0.46 0.03 52 1012.6
20260502161632 8 79 4.8 12.9 0.00 0.46 0.03 53 1012.7
20260502160124 8 141 3.2 9.7 0.00 0.46 0.03 56 1012.6
20260502151645 8 61 1.6 9.7 0.00 0.46 0.03 63 1012.9
20260502150135 8 95 4.8 14.5 0.00 0.46 0.03 65 1013.0
20260502051631 4 136 0.0 0.0 0.00 0.43 0.00 94 1012.0
20260502050133 4 136 0.0 0.0 0.00 0.43 0.00 93 1012.0
20260502044631 4 142 0.0 0.0 0.00 0.43 0.00 93 1012.0
20260502043208 4 143 0.0 0.0 0.00 0.43 0.00 93 1012.0
20260502041643 4 142 0.0 0.0 0.03 0.43 0.00 93 1012.0
20260502040218 4 144 0.0 0.0 0.05 0.43 0.00 93 1012.1
20260502034629 4 144 0.0 0.0 0.08 0.43 0.43 93 1011.8
20260502033129 4 144 0.0 0.0 0.10 0.43 0.43 92 1011.9
20260502031648 4 144 0.0 0.0 0.10 0.41 0.41 92 1012.0
20260502030146 4 144 0.0 3.2 0.10 0.38 0.38 92 1012.0
20260502024623 4 135 0.0 3.2 0.08 0.36 0.36 92 1012.0
20260502023139 4 136 0.0 3.2 0.08 0.33 0.33 91 1011.9
20260502021631 5 127 0.0 4.8 0.05 0.30 0.30 91 1011.9
20260502020151 5 155 1.6 8.0 0.05 0.28 0.28 91 1012.0
20260502014627 5 153 1.6 4.8 0.08 0.28 0.28 91 1011.9
20260502013129 5 139 0.0 3.2 0.08 0.25 0.25 90 1011.8
20260502011629 5 143 0.0 4.8 0.13 0.25 0.25 90 1011.7
20260502010148 6 129 0.0 3.2 0.13 0.23 0.23 90 1011.4
20260502004644 6 123 0.0 1.6 0.13 0.20 0.20 89 1011.5
20260502003135 6 122 0.0 3.2 0.13 0.18 0.18 89 1011.3
20260502001632 6 108 0.0 0.0 0.08 0.13 0.13 88 1011.2
20260502000131 6 136 0.0 4.8 0.08 0.10 0.10 87 1010.9
20260501234628 7 106 0.0 3.2 0.05 0.08 0.08 87 1010.9
20260501233147 7 124 0.0 1.6 0.05 0.05 0.05 85 1010.7
20260501231648 7 129 0.0 3.2 0.05 0.05 0.05 84 1010.6
20260501230125 8 103 0.0 3.2 0.03 0.03 0.03 83 1010.6
20260501224636 8 125 1.6 9.7 0.03 0.03 0.03 77 1010.4
20260501223135 10 124 1.6 3.2 0.00 0.00 0.00 71 1010.4
20260501221632 10 103 1.6 3.2 0.00 0.00 0.00 65 1010.3
20260501220127 10 81 1.6 4.8 0.00 0.00 0.00 61 1010.3